User: anonymous   Login
Location: Brno
(49.2000°N, 16.6330°E)
Time: 00:07:47
(UTC+02:00)
Language:

RESURS DK-1 - Orbit

View from above orbital plane
View from above orbital plane
View from above satellite
View from above satellite

Ground track
Ground track

The orbit data is extracted from the following two-line orbital elements,

1 29228U 06021A   17291.56266602  .00000190  00000-0  21799-4 0  9997
2 29228  69.9342 144.1726 0004246 193.5012 166.6035 15.02225963626624
Epoch (UTC): 18 October 2017 13:30:14
Eccentricity: 0.0004246
inclination: 69.9342°
perigee height: 557 km
apogee height: 563 km
right ascension of ascending node: 144.1726°
argument of perigee: 193.5012°
revolutions per day: 15.02225963
mean anomaly at epoch: 166.6035°
orbit number at epoch: 62662

The dashed part of the orbit path shows where the satellite is in the earth's shadow,  

DLR